TimeEST,TemperatureF,Dew PointF,Humidity,Sea Level PressureIn,VisibilityMPH,Wind Direction,Wind SpeedMPH,Gust SpeedMPH,PrecipitationIn,Events,Conditions,WindDirDegrees,DateUTC
12:14 AM,17.1,12.7,83,30.28,10.0,Calm,Calm,-,N/A,,Clear,0,2014-02-03 05:14:00
12:35 AM,16.5,12.4,84,30.28,10.0,Calm,Calm,-,N/A,,Clear,0,2014-02-03 05:35:00
12:55 AM,16.2,12.2,84,30.28,10.0,Calm,Calm,-,N/A,,Clear,0,2014-02-03 05:55:00
1:14 AM,15.6,12.2,86,30.27,10.0,Calm,Calm,-,N/A,,Clear,0,2014-02-03 06:14:00
1:35 AM,15.8,12.2,86,30.26,10.0,Calm,Calm,-,N/A,,Clear,0,2014-02-03 06:35:00
1:54 AM,15.3,11.8,86,30.27,10.0,Calm,Calm,-,N/A,,Clear,0,2014-02-03 06:54:00
2:15 AM,14.9,11.8,88,30.27,10.0,Calm,Calm,-,N/A,,Clear,0,2014-02-03 07:15:00
2:34 AM,14.0,10.9,88,30.26,10.0,Calm,Calm,-,N/A,,Clear,0,2014-02-03 07:34:00
2:55 AM,14.4,11.3,88,30.29,10.0,Calm,Calm,-,N/A,,Clear,0,2014-02-03 07:55:00
3:14 AM,13.8,10.6,87,30.27,10.0,Calm,Calm,-,N/A,,Clear,0,2014-02-03 08:14:00
3:35 AM,13.1,10.4,89,30.28,10.0,Calm,Calm,-,N/A,,Clear,0,2014-02-03 08:35:00
3:55 AM,13.1,9.7,86,30.28,10.0,NW,4.6,-,N/A,,Clear,310,2014-02-03 08:55:00
4:14 AM,12.9,9.5,86,30.27,10.0,NNW,5.8,-,N/A,,Clear,330,2014-02-03 09:14:00
4:35 AM,12.9,9.5,86,30.27,10.0,NNW,4.6,-,N/A,,Clear,330,2014-02-03 09:35:00
4:54 AM,12.0,8.4,85,30.28,10.0,Calm,Calm,-,N/A,,Clear,0,2014-02-03 09:54:00
5:15 AM,11.8,8.6,87,30.27,10.0,NNW,3.5,-,N/A,,Clear,330,2014-02-03 10:15:00
5:35 AM,11.8,8.1,85,30.28,10.0,Calm,Calm,-,N/A,,Clear,0,2014-02-03 10:35:00
5:54 AM,11.3,7.9,86,30.27,10.0,Calm,Calm,-,N/A,,Clear,0,2014-02-03 10:54:00
6:15 AM,11.3,7.7,85,30.28,10.0,Calm,Calm,-,N/A,,Clear,0,2014-02-03 11:15:00
6:34 AM,10.6,7.3,87,30.28,10.0,Calm,Calm,-,N/A,,Clear,0,2014-02-03 11:34:00
6:55 AM,9.3,6.1,87,30.29,10.0,Calm,Calm,-,N/A,,Clear,0,2014-02-03 11:55:00
7:15 AM,8.2,5.7,89,30.30,10.0,Calm,Calm,-,N/A,,Clear,0,2014-02-03 12:15:00
7:34 AM,7.9,5.2,89,30.31,10.0,Calm,Calm,-,N/A,,Clear,0,2014-02-03 12:34:00
7:55 AM,6.8,4.3,89,30.32,10.0,Calm,Calm,-,N/A,,Clear,0,2014-02-03 12:55:00
8:15 AM,8.2,5.9,90,30.32,10.0,Calm,Calm,-,N/A,,Clear,0,2014-02-03 13:15:00
8:34 AM,10.8,7.3,86,30.32,10.0,Calm,Calm,-,N/A,,Clear,0,2014-02-03 13:34:00
8:55 AM,11.3,7.5,85,30.33,10.0,Calm,Calm,-,N/A,,Clear,0,2014-02-03 13:55:00
9:14 AM,12.4,7.7,82,30.34,10.0,Calm,Calm,-,N/A,,Clear,0,2014-02-03 14:14:00
9:35 AM,13.8,8.8,80,30.34,10.0,Calm,Calm,-,N/A,,Clear,0,2014-02-03 14:35:00
9:55 AM,14.9,9.3,79,30.35,10.0,Calm,Calm,-,N/A,,Clear,0,2014-02-03 14:55:00
10:14 AM,16.3,10.0,76,30.35,10.0,Calm,Calm,-,N/A,,Clear,0,2014-02-03 15:14:00
10:35 AM,17.6,10.2,73,30.35,10.0,Calm,Calm,-,N/A,,Clear,0,2014-02-03 15:35:00
10:55 AM,19.2,11.1,71,30.35,10.0,Calm,Calm,-,N/A,,Clear,0,2014-02-03 15:55:00
11:14 AM,19.8,11.1,69,30.36,10.0,Calm,Calm,-,N/A,,Clear,0,2014-02-03 16:14:00
11:35 AM,20.5,12.0,70,30.36,10.0,Calm,Calm,-,N/A,,Clear,0,2014-02-03 16:35:00
11:55 AM,21.9,11.8,65,30.35,10.0,Calm,Calm,-,N/A,,Clear,0,2014-02-03 16:55:00
12:14 PM,21.6,12.0,67,30.34,10.0,Calm,Calm,-,N/A,,Clear,0,2014-02-03 17:14:00
12:35 PM,22.8,12.6,65,30.32,10.0,Calm,Calm,-,N/A,,Clear,0,2014-02-03 17:35:00
12:55 PM,23.4,12.2,62,30.32,10.0,Calm,Calm,-,N/A,,Clear,0,2014-02-03 17:55:00
1:14 PM,23.9,11.5,59,30.31,10.0,Calm,Calm,-,N/A,,Clear,0,2014-02-03 18:14:00
1:35 PM,24.8,11.3,57,30.32,10.0,Calm,Calm,-,N/A,,Clear,0,2014-02-03 18:35:00
1:54 PM,25.7,8.2,48,30.32,10.0,Calm,Calm,-,N/A,,Clear,0,2014-02-03 18:54:00
2:15 PM,25.3,7.7,47,30.32,10.0,Calm,Calm,-,N/A,,Clear,0,2014-02-03 19:15:00
2:34 PM,25.7,9.7,51,30.31,10.0,Calm,Calm,-,N/A,,Clear,0,2014-02-03 19:34:00
2:55 PM,25.7,10.0,52,30.31,10.0,Calm,Calm,-,N/A,,Clear,0,2014-02-03 19:55:00
3:15 PM,26.6,9.9,49,30.33,10.0,SW,3.5,-,N/A,,Clear,220,2014-02-03 20:15:00
3:34 PM,25.7,8.1,47,30.33,10.0,WSW,8.1,-,N/A,,Clear,250,2014-02-03 20:34:00
3:55 PM,25.7,7.0,45,30.34,10.0,WSW,5.8,-,N/A,,Clear,250,2014-02-03 20:55:00
4:15 PM,25.7,5.7,43,30.35,10.0,West,8.1,-,N/A,,Clear,270,2014-02-03 21:15:00
4:34 PM,25.7,5.5,42,30.35,10.0,West,4.6,-,N/A,,Clear,260,2014-02-03 21:34:00
4:55 PM,25.3,7.7,47,30.35,10.0,West,5.8,-,N/A,,Clear,270,2014-02-03 21:55:00
5:15 PM,24.4,7.5,49,30.36,10.0,WSW,6.9,-,N/A,,Clear,250,2014-02-03 22:15:00
5:34 PM,23.9,7.5,50,30.35,10.0,SW,3.5,-,N/A,,Clear,230,2014-02-03 22:34:00
5:55 PM,23.4,7.2,50,30.35,10.0,Calm,Calm,-,N/A,,Clear,0,2014-02-03 22:55:00
6:14 PM,22.5,7.7,53,30.35,10.0,Calm,Calm,-,N/A,,Clear,0,2014-02-03 23:14:00
6:35 PM,20.3,9.3,63,30.35,10.0,Calm,Calm,-,N/A,,Clear,0,2014-02-03 23:35:00
6:55 PM,19.0,9.9,67,30.35,10.0,Calm,Calm,-,N/A,,Clear,0,2014-02-03 23:55:00
7:14 PM,19.2,8.6,63,30.35,10.0,NW,3.5,-,N/A,,Clear,310,2014-02-04 00:14:00
7:35 PM,20.5,7.2,56,30.36,10.0,WNW,4.6,-,N/A,,Clear,300,2014-02-04 00:35:00
7:55 PM,18.3,7.2,62,30.36,10.0,Calm,Calm,-,N/A,,Clear,0,2014-02-04 00:55:00
8:15 PM,17.8,7.0,63,30.36,10.0,Calm,Calm,-,N/A,,Clear,0,2014-02-04 01:15:00
8:35 PM,17.8,7.2,63,30.37,10.0,Calm,Calm,-,N/A,,Clear,0,2014-02-04 01:35:00
8:54 PM,17.2,7.2,65,30.37,10.0,Calm,Calm,-,N/A,,Clear,0,2014-02-04 01:54:00
9:15 PM,14.9,6.8,70,30.37,10.0,Calm,Calm,-,N/A,,Clear,0,2014-02-04 02:15:00
9:34 PM,15.1,7.5,72,30.37,10.0,Calm,Calm,-,N/A,,Clear,0,2014-02-04 02:34:00
9:55 PM,13.8,7.0,74,30.37,10.0,Calm,Calm,-,N/A,,Clear,0,2014-02-04 02:55:00
10:15 PM,12.9,7.5,79,30.38,10.0,Calm,Calm,-,N/A,,Clear,0,2014-02-04 03:15:00
10:34 PM,11.7,7.3,83,30.39,10.0,Calm,Calm,-,N/A,,Clear,0,2014-02-04 03:34:00
10:55 PM,11.5,7.7,85,30.39,10.0,Calm,Calm,-,N/A,,Clear,0,2014-02-04 03:55:00
11:15 PM,10.9,7.3,85,30.39,10.0,Calm,Calm,-,N/A,,Clear,0,2014-02-04 04:15:00
11:34 PM,10.8,7.7,87,30.39,10.0,Calm,Calm,-,N/A,,Clear,0,2014-02-04 04:34:00
11:55 PM,10.0,7.2,88,30.39,10.0,Calm,Calm,-,N/A,,Clear,0,2014-02-04 04:55:00